Weather in Myndagay

Russia / Sakha (Yakutia) Republic     61°38′39″N   133°12′23″E
temp.,
°C
wind,
m/s
gust,
m/s
humid.,
%
clouds,
%
prec.,
mm/h
press.,
hPa
HPBL,
m
24 may, tue
tue2400:00+7e127850 0.1 101039
03:00+3ssw118716 0.1 101011
06:00+8ssw236845 0.0 1011210
09:00+13ssw334714 0.0 10101228
12:00+14sw4639100 0.0 10082091
15:00+16ssw4841100 0.0 10052254
18:00+10ssw61187100 1.8 1004911
21:00+9wnw51188100 5.7 1003852
25 may, wed
wed2500:00+6wsw4129287 0.1 1004678
03:00+4wsw41091100 0.1 1005565
06:00+5wsw3885100 0.0 1004613
09:00+4wsw3582100 0.6 1003769
12:00+9w455497 0.0 10021510
15:00+11wnw573885 0.1 10012237
18:00+10wnw5745100 0.0 10022118
21:00+4wnw410635 0.0 1004771
26 may, thu
thu2600:00+3w497599 0.0 1005830
03:00+2w378198 0.0 1005623
06:00+2w2696100 0.4 1006329
09:00+3w2494100 0.8 1006358
12:00+7n2365100 0.1 10051138
15:00+8wnw226997 0.5 10061067
18:00+8nw237269 1.0 1006754
21:00+4nne008559 1.5 100710
27 may, fri
fri2700:00+2nnw00925 0.0 100710
03:000w11946 0.0 100810
06:00+4nw018592 0.0 1008158
09:00+6n1178100 0.0 1008441
12:00+10n2259100 0.2 10081347
15:00+11nne215867 0.3 10091290
18:00+8ne247395 0.1 1010443
21:00+6ne258545 0.1 1011132
28 may, sat
sat2800:00+2ne119599 0.0 101211
03:00+1ne2297100 0.0 101233
06:00+5ne2582100 0.0 1012241
09:00+10ene355999 0.0 1012812
12:00+14e354286 0.0 10102085
15:00+14ese3550100 0.0 10101304
18:00+14ese465284 0.0 10101477
21:00+9e267481 0.0 1011132